Total_Precipitation_Accumulation
0.00 0.00 0.00 0.00 0.01 0.19 1.02 1.28 1.24 0.19 0.54 0.32 0.23 0.27 0.25 0.40 0.21 0.24 0.16 0.29 0.27 0.18 0.09 0.06 0.01 0.13 0.21 0.07 0.05 0.08 0.08 0.33 0.04 0.31 0.13 0.26 0.25 0.34 0.25 0.12 0.21 0.23 0.31 0.29 0.42 0.61 0.47 0.68 0.54 0.55 0.60 0.93 0.58 0.79 0.49 0.41 0.62 0.59 0.63 0.50 0.38 0.39 0.21 0.09 0.05 0.04 0.02 0.01 0.03 0.02 0.02 0.00 0.00 0.01 0.02 0.01 0.01 0.01 0.02 0.00 0.00 0.01 0.01 0.00 0.00 0.01 0.00 0.00 0.00 0.00 0.00 0.01 0.03 0.01 0.01 0.04 0.04
0.00 0.00 0.00 0.00 0.11 0.86 0.63 0.66 0.52 0.20 0.12 0.18 0.15 0.19 0.20 0.12 0.17 0.19 0.05 0.06 0.10 0.09 0.01 0.00 0.01 0.01 0.01 0.02 0.06 0.03 0.01 0.03 0.04 0.02 0.14 0.13 0.31 0.25 0.17 0.12 0.12 0.14 0.17 0.14 0.35 0.34 0.55 0.63 0.51 0.96 0.45 0.53 0.55 0.44 0.38 0.69 0.52 0.56 0.39 0.45 0.24 0.27 0.16 0.07 0.04 0.03 0.02 0.01 0.01 0.02 0.00 0.02 0.02 0.01 0.02 0.01 0.02 0.00 0.01 0.01 0.00 0.00 0.00 0.00 0.01 0.00 0.01 0.01 0.01 0.00 0.00 0.00 0.00 0.02 0.01 0.01 0.01
0.00 0.00 0.01 0.02 0.13 0.28 0.36 0.17 0.27 0.04 0.22 0.23 0.27 0.37 0.14 0.23 0.12 0.08 0.00 0.04 0.01 0.00 0.00 0.01 0.02 0.01 0.03 0.02 0.09 0.02 0.20 0.06 0.03 0.04 0.18 0.17 0.23 0.34 0.25 0.16 0.11 0.13 0.20 0.20 0.29 0.59 0.55 0.64 0.33 0.40 0.37 0.67 0.29 0.42 0.26 0.39 0.30 0.40 0.48 0.43 0.25 0.26 0.23 0.05 0.03 0.03 0.02 0.01 0.02 0.02 0.01 0.01 0.02 0.02 0.01 0.01 0.01 0.02 0.01 0.01 0.01 0.00 0.00 0.00 0.00 0.00 0.02 0.00 0.01 0.00 0.00 0.01 0.00 0.00 0.01 0.01 0.02
0.00 0.00 0.06 0.16 0.60 0.55 0.29 0.11 0.03 0.06 0.03 0.20 0.13 0.05 0.17 0.01 0.01 0.00 0.00 0.00 0.02 0.00 0.01 0.02 0.06 0.00 0.00 0.02 0.03 0.00 0.03 0.06 0.06 0.03 0.29 0.19 0.14 0.19 0.15 0.16 0.16 0.09 0.20 0.19 0.23 0.33 0.36 0.27 0.17 0.47 0.37 0.36 0.30 0.33 0.19 0.30 0.31 0.43 0.37 0.25 0.23 0.21 0.24 0.08 0.03 0.06 0.04 0.02 0.03 0.03 0.02 0.01 0.02 0.01 0.01 0.02 0.01 0.01 0.03 0.01 0.01 0.00 0.00 0.00 0.00 0.01 0.01 0.02 0.02 0.03 0.01 0.01 0.01 0.00 0.00 0.04 0.03
0.01 0.01 0.04 0.45 0.46 0.29 0.23 0.02 0.13 0.01 0.09 0.09 0.17 0.07 0.04 0.04 0.00 0.00 0.00 0.00 0.00 0.00 0.00 0.00 0.01 0.00 0.00 0.02 0.03 0.05 0.10 0.07 0.09 0.05 0.11 0.14 0.09 0.13 0.14 0.14 0.14 0.13 0.16 0.21 0.20 0.22 0.23 0.13 0.17 0.20 0.21 0.16 0.25 0.19 0.13 0.13 0.26 0.19 0.16 0.22 0.29 0.24 0.17 0.07 0.03 0.03 0.02 0.03 0.03 0.02 0.01 0.01 0.02 0.01 0.01 0.02 0.01 0.01 0.01 0.01 0.02 0.01 0.01 0.00 0.01 0.01 0.03 0.01 0.04 0.02 0.01 0.02 0.01 0.01 0.01 0.04 0.02
0.01 0.13 0.03 0.08 0.36 0.04 0.06 0.14 0.05 0.01 0.00 0.00 0.26 0.13 0.04 0.01 0.02 0.00 0.00 0.00 0.00 0.00 0.00 0.00 0.01 0.04 0.01 0.00 0.00 0.02 0.06 0.08 0.06 0.03 0.10 0.17 0.12 0.11 0.12 0.11 0.11 0.18 0.26 0.21 0.13 0.15 0.28 0.20 0.15 0.12 0.14 0.24 0.16 0.09 0.11 0.14 0.14 0.16 0.20 0.12 0.16 0.11 0.04 0.04 0.05 0.01 0.01 0.03 0.02 0.01 0.01 0.01 0.01 0.01 0.01 0.01 0.01 0.00 0.02 0.01 0.01 0.00 0.00 0.03 0.00 0.01 0.02 0.01 0.01 0.02 0.02 0.03 0.01 0.01 0.01 0.02 0.03
0.04 0.20 0.24 0.09 0.04 0.07 0.06 0.12 0.01 0.00 0.01 0.00 0.01 0.02 0.02 0.01 0.00 0.00 0.00 0.00 0.00 0.00 0.00 0.00 0.00 0.00 0.00 0.01 0.01 0.03 0.01 0.00 0.02 0.04 0.07 0.05 0.05 0.06 0.10 0.13 0.10 0.16 0.11 0.11 0.07 0.14 0.16 0.14 0.11 0.13 0.14 0.09 0.09 0.09 0.10 0.10 0.05 0.13 0.08 0.09 0.12 0.11 0.05 0.03 0.02 0.02 0.02 0.02 0.02 0.00 0.01 0.01 0.01 0.02 0.03 0.02 0.00 0.00 0.01 0.00 0.00 0.00 0.00 0.00 0.01 0.03 0.02 0.01 0.00 0.02 0.01 0.01 0.02 0.01 0.01 0.02 0.02
0.02 0.06 0.08 0.16 0.04 0.09 0.01 0.01 0.04 0.00 0.00 0.00 0.00 0.00 0.01 0.01 0.00 0.00 0.00 0.00 0.00 0.00 0.00 0.00 0.00 0.01 0.00 0.00 0.06 0.10 0.00 0.01 0.01 0.02 0.01 0.02 0.06 0.08 0.09 0.11 0.13 0.16 0.13 0.10 0.10 0.13 0.16 0.09 0.14 0.10 0.08 0.13 0.10 0.05 0.06 0.07 0.08 0.09 0.07 0.07 0.03 0.03 0.04 0.03 0.01 0.01 0.03 0.03 0.00 0.02 0.01 0.00 0.02 0.00 0.01 0.00 0.01 0.01 0.00 0.00 0.00 0.00 0.00 0.00 0.02 0.03 0.02 0.04 0.01 0.01 0.00 0.01 0.00 0.02 0.02 0.01 0.01
0.04 0.04 0.02 0.05 0.08 0.01 0.03 0.00 0.00 0.00 0.00 0.00 0.00 0.00 0.00 0.01 0.01 0.04 0.02 0.00 0.00 0.00 0.00 0.00 0.00 0.03 0.02 0.01 0.08 0.05 0.01 0.00 0.00 0.00 0.01 0.01 0.06 0.08 0.10 0.12 0.12 0.17 0.12 0.09 0.16 0.14 0.16 0.10 0.09 0.12 0.13 0.08 0.07 0.10 0.07 0.10 0.05 0.05 0.05 0.04 0.03 0.04 0.02 0.02 0.02 0.01 0.01 0.01 0.01 0.02 0.01 0.02 0.01 0.01 0.01 0.01 0.01 0.01 0.00 0.00 0.01 0.00 0.00 0.01 0.01 0.02 0.02 0.00 0.00 0.00 0.00 0.00 0.01 0.01 0.03 0.01 0.01
0.04 0.03 0.05 0.04 0.02 0.03 0.01 0.00 0.04 0.00 0.00 0.00 0.00 0.00 0.00 0.00 0.00 0.05 0.02 0.01 0.00 0.00 0.00 0.00 0.00 0.00 0.00 0.02 0.04 0.02 0.03 0.00 0.01 0.02 0.02 0.03 0.03 0.05 0.06 0.07 0.05 0.07 0.06 0.16 0.05 0.09 0.13 0.20 0.07 0.09 0.07 0.08 0.05 0.06 0.07 0.09 0.04 0.05 0.04 0.03 0.04 0.02 0.02 0.01 0.01 0.02 0.02 0.01 0.02 0.01 0.02 0.01 0.00 0.00 0.00 0.00 0.03 0.01 0.00 0.00 0.01 0.00 0.00 0.01 0.00 0.00 0.00 0.00 0.00 0.00 0.00 0.01 0.00 0.01 0.02 0.05 0.03
0.15 0.01 0.02 0.03 0.03 0.00 0.01 0.00 0.00 0.00 0.00 0.00 0.00 0.00 0.00 0.00 0.00 0.00 0.01 0.01 0.00 0.00 0.00 0.00 0.01 0.00 0.00 0.05 0.07 0.03 0.01 0.00 0.00 0.03 0.02 0.02 0.04 0.05 0.06 0.03 0.06 0.04 0.10 0.12 0.06 0.06 0.17 0.23 0.11 0.08 0.07 0.07 0.07 0.06 0.08 0.09 0.06 0.05 0.05 0.03 0.02 0.01 0.01 0.01 0.01 0.01 0.02 0.02 0.02 0.02 0.02 0.02 0.03 0.01 0.00 0.01 0.01 0.00 0.00 0.01 0.01 0.00 0.00 0.00 0.00 0.00 0.00 0.00 0.03 0.01 0.00 0.00 0.01 0.00 0.01 0.03 0.01
0.18 0.04 0.03 0.07 0.04 0.06 0.05 0.01 0.00 0.00 0.00 0.00 0.00 0.00 0.00 0.00 0.00 0.00 0.00 0.00 0.00 0.00 0.00 0.00 0.00 0.00 0.02 0.01 0.09 0.10 0.02 0.01 0.00 0.01 0.03 0.04 0.03 0.03 0.02 0.04 0.05 0.03 0.08 0.15 0.14 0.22 0.12 0.22 0.20 0.18 0.04 0.05 0.07 0.05 0.05 0.07 0.04 0.03 0.04 0.01 0.02 0.02 0.01 0.01 0.02 0.02 0.00 0.01 0.04 0.02 0.02 0.01 0.00 0.01 0.00 0.01 0.02 0.01 0.02 0.01 0.01 0.00 0.00 0.00 0.00 0.00 0.01 0.01 0.01 0.02 0.01 0.01 0.01 0.02 0.03 0.08 0.10
0.13 0.03 0.10 0.02 0.03 0.04 0.02 0.04 0.01 0.00 0.00 0.00 0.00 0.00 0.00 0.00 0.00 0.00 0.00 0.00 0.00 0.00 0.00 0.00 0.00 0.00 0.00 0.01 0.07 0.06 0.05 0.01 0.00 0.01 0.02 0.03 0.04 0.03 0.01 0.03 0.03 0.04 0.05 0.08 0.15 0.10 0.12 0.10 0.22 0.15 0.10 0.08 0.06 0.06 0.07 0.03 0.02 0.03 0.03 0.03 0.02 0.01 0.00 0.01 0.01 0.00 0.00 0.00 0.00 0.02 0.02 0.00 0.00 0.00 0.00 0.01 0.01 0.01 0.01 0.01 0.01 0.02 0.00 0.01 0.02 0.00 0.03 0.01 0.05 0.10 0.12 0.09 0.07 0.02 0.03 0.11 0.13
0.04 0.07 0.03 0.03 0.01 0.02 0.06 0.04 0.03 0.04 0.01 0.00 0.00 0.00 0.00 0.00 0.00 0.00 0.00 0.01 0.03 0.03 0.00 0.00 0.00 0.00 0.01 0.01 0.17 0.08 0.04 0.03 0.00 0.01 0.02 0.03 0.03 0.02 0.02 0.02 0.04 0.06 0.04 0.05 0.11 0.09 0.13 0.14 0.12 0.16 0.12 0.17 0.31 0.20 0.07 0.04 0.04 0.03 0.01 0.03 0.04 0.01 0.01 0.00 0.00 0.00 0.01 0.00 0.01 0.02 0.01 0.00 0.01 0.03 0.02 0.01 0.01 0.01 0.00 0.00 0.01 0.01 0.00 0.01 0.01 0.01 0.03 0.05 0.04 0.09 0.09 0.04 0.06 0.04 0.07 0.20 0.29
0.03 0.04 0.03 0.00 0.03 0.02 0.03 0.10 0.04 0.01 0.03 0.01 0.00 0.00 0.00 0.00 0.00 0.00 0.00 0.01 0.00 0.00 0.00 0.00 0.00 0.00 0.01 0.00 0.03 0.06 0.03 0.02 0.01 0.01 0.02 0.02 0.02 0.02 0.02 0.03 0.05 0.04 0.11 0.10 0.14 0.15 0.14 0.12 0.12 0.11 0.17 0.12 0.11 0.17 0.21 0.11 0.02 0.04 0.02 0.07 0.01 0.02 0.02 0.01 0.01 0.01 0.01 0.01 0.01 0.02 0.03 0.03 0.01 0.04 0.02 0.01 0.00 0.01 0.01 0.00 0.00 0.01 0.02 0.02 0.02 0.02 0.02 0.15 0.18 0.16 0.05 0.02 0.01 0.03 0.10 0.11 0.24
0.00 0.04 0.07 0.08 0.07 0.02 0.00 0.02 0.01 0.00 0.00 0.00 0.00 0.00 0.00 0.00 0.00 0.00 0.00 0.00 0.00 0.00 0.00 0.00 0.00 0.01 0.00 0.00 0.00 0.00 0.02 0.01 0.01 0.00 0.01 0.02 0.05 0.05 0.05 0.06 0.06 0.09 0.06 0.09 0.15 0.12 0.08 0.09 0.15 0.11 0.16 0.17 0.12 0.11 0.08 0.12 0.02 0.01 0.02 0.02 0.00 0.00 0.00 0.01 0.00 0.03 0.01 0.01 0.02 0.01 0.06 0.13 0.04 0.03 0.00 0.02 0.00 0.00 0.01 0.02 0.04 0.00 0.01 0.03 0.04 0.02 0.04 0.08 0.03 0.06 0.08 0.03 0.02 0.03 0.04 0.14 0.22
0.00 0.01 0.05 0.11 0.09 0.11 0.03 0.03 0.11 0.08 0.00 0.00 0.00 0.00 0.00 0.00 0.00 0.00 0.00 0.00 0.00 0.01 0.00 0.00 0.00 0.00 0.00 0.00 0.00 0.00 0.01 0.02 0.01 0.01 0.02 0.03 0.06 0.11 0.11 0.06 0.10 0.10 0.10 0.09 0.14 0.14 0.09 0.10 0.09 0.12 0.15 0.22 0.18 0.12 0.05 0.11 0.07 0.02 0.03 0.00 0.02 0.00 0.01 0.02 0.01 0.01 0.02 0.02 0.02 0.01 0.04 0.07 0.06 0.06 0.11 0.09 0.03 0.06 0.01 0.00 0.03 0.02 0.03 0.06 0.07 0.10 0.11 0.08 0.07 0.04 0.06 0.05 0.03 0.06 0.07 0.13 0.08
0.00 0.15 0.04 0.09 0.01 0.11 0.02 0.04 0.02 0.01 0.00 0.00 0.00 0.00 0.00 0.00 0.00 0.00 0.00 0.00 0.00 0.00 0.00 0.00 0.00 0.00 0.00 0.00 0.00 0.00 0.00 0.01 0.02 0.01 0.02 0.02 0.05 0.04 0.07 0.06 0.09 0.11 0.10 0.10 0.12 0.10 0.08 0.12 0.09 0.08 0.20 0.10 0.16 0.09 0.10 0.08 0.09 0.06 0.08 0.13 0.05 0.06 0.02 0.00 0.06 0.04 0.01 0.04 0.04 0.07 0.05 0.08 0.07 0.22 0.25 0.13 0.27 0.10 0.07 0.01 0.04 0.05 0.08 0.16 0.14 0.10 0.20 0.24 0.18 0.12 0.03 0.06 0.09 0.05 0.10 0.05 0.10
0.01 0.06 0.12 0.18 0.03 0.01 0.02 0.02 0.00 0.02 0.01 0.00 0.00 0.00 0.00 0.00 0.00 0.00 0.01 0.00 0.00 0.00 0.00 0.00 0.00 0.00 0.00 0.01 0.00 0.00 0.00 0.01 0.02 0.01 0.00 0.01 0.02 0.01 0.03 0.02 0.05 0.04 0.06 0.08 0.13 0.11 0.08 0.08 0.06 0.08 0.07 0.12 0.09 0.07 0.05 0.06 0.06 0.07 0.12 0.05 0.05 0.01 0.06 0.09 0.04 0.05 0.04 0.05 0.13 0.25 0.30 0.11 0.09 0.21 0.22 0.14 0.16 0.02 0.07 0.00 0.03 0.09 0.10 0.26 0.13 0.25 0.33 0.35 0.29 0.11 0.04 0.08 0.13 0.09 0.13 0.20 0.23
0.00 0.01 0.19 0.04 0.02 0.01 0.00 0.00 0.00 0.01 0.00 0.00 0.00 0.00 0.00 0.00 0.00 0.00 0.03 0.01 0.00 0.00 0.00 0.00 0.00 0.01 0.01 0.02 0.01 0.01 0.00 0.01 0.00 0.00 0.01 0.00 0.01 0.01 0.01 0.01 0.02 0.01 0.04 0.03 0.10 0.07 0.09 0.07 0.04 0.06 0.08 0.10 0.09 0.07 0.06 0.05 0.04 0.07 0.11 0.04 0.05 0.04 0.03 0.04 0.04 0.03 0.07 0.16 0.26 0.26 0.21 0.24 0.28 0.31 0.09 0.04 0.05 0.03 0.07 0.01 0.01 0.06 0.09 0.07 0.09 0.10 0.10 0.12 0.21 0.10 0.10 0.07 0.18 0.22 0.24 0.25 0.31
0.00 0.00 0.10 0.08 0.00 0.01 0.02 0.00 0.00 0.00 0.00 0.00 0.00 0.00 0.00 0.00 0.00 0.01 0.00 0.04 0.00 0.00 0.00 0.00 0.00 0.00 0.01 0.01 0.01 0.00 0.01 0.01 0.02 0.00 0.00 0.00 0.01 0.00 0.00 0.01 0.01 0.00 0.05 0.03 0.08 0.06 0.05 0.06 0.04 0.05 0.05 0.05 0.04 0.05 0.03 0.08 0.05 0.06 0.07 0.11 0.06 0.05 0.10 0.05 0.08 0.10 0.09 0.16 0.20 0.21 0.15 0.30 0.25 0.21 0.10 0.16 0.09 0.10 0.13 0.12 0.09 0.28 0.14 0.15 0.04 0.20 0.10 0.25 0.18 0.22 0.20 0.26 0.14 0.20 0.27 0.35 0.33
0.00 0.01 0.06 0.01 0.00 0.01 0.00 0.00 0.00 0.00 0.00 0.00 0.00 0.01 0.01 0.00 0.00 0.00 0.08 0.06 0.08 0.00 0.00 0.00 0.00 0.00 0.00 0.00 0.00 0.00 0.01 0.00 0.00 0.00 0.00 0.00 0.00 0.00 0.00 0.00 0.00 0.01 0.04 0.04 0.04 0.03 0.04 0.04 0.02 0.04 0.03 0.03 0.04 0.05 0.09 0.05 0.07 0.04 0.14 0.08 0.17 0.08 0.09 0.04 0.16 0.08 0.07 0.06 0.08 0.07 0.05 0.14 0.11 0.11 0.09 0.15 0.11 0.05 0.03 0.05 0.06 0.09 0.06 0.20 0.12 0.15 0.12 0.24 0.29 0.25 0.35 0.39 0.26 0.32 0.20 0.09 0.07
0.00 0.00 0.00 0.00 0.00 0.02 0.00 0.00 0.00 0.00 0.00 0.00 0.00 0.00 0.00 0.00 0.00 0.00 0.03 0.24 0.00 0.00 0.00 0.00 0.00 0.00 0.00 0.00 0.00 0.00 0.00 0.00 0.00 0.00 0.00 0.00 0.00 0.00 0.00 0.00 0.00 0.02 0.03 0.02 0.04 0.02 0.03 0.04 0.03 0.03 0.03 0.03 0.02 0.03 0.05 0.08 0.08 0.09 0.09 0.08 0.10 0.10 0.09 0.06 0.09 0.12 0.24 0.12 0.07 0.06 0.07 0.07 0.11 0.11 0.05 0.08 0.04 0.05 0.08 0.12 0.10 0.09 0.17 0.24 0.25 0.15 0.18 0.18 0.12 0.21 0.14 0.15 0.19 0.22 0.39 0.26 0.11
0.00 0.00 0.00 0.00 0.00 0.00 0.00 0.00 0.00 0.00 0.00 0.02 0.00 0.00 0.00 0.00 0.00 0.01 0.00 0.00 0.00 0.00 0.00 0.00 0.00 0.00 0.00 0.00 0.00 0.00 0.00 0.00 0.00 0.00 0.00 0.00 0.00 0.00 0.00 0.01 0.00 0.00 0.00 0.04 0.01 0.02 0.02 0.04 0.02 0.03 0.03 0.03 0.03 0.02 0.05 0.05 0.05 0.09 0.12 0.05 0.05 0.03 0.12 0.16 0.08 0.06 0.06 0.13 0.03 0.03 0.04 0.05 0.09 0.02 0.03 0.02 0.05 0.08 0.04 0.09 0.08 0.15 0.21 0.32 0.22 0.28 0.18 0.31 0.26 0.16 0.09 0.12 0.16 0.23 0.33 0.46 0.74
0.00 0.00 0.00 0.00 0.00 0.00 0.00 0.00 0.00 0.00 0.00 0.00 0.00 0.00 0.00 0.00 0.00 0.00 0.00 0.00 0.00 0.00 0.00 0.00 0.00 0.00 0.00 0.00 0.00 0.00 0.00 0.00 0.00 0.00 0.00 0.00 0.00 0.00 0.00 0.00 0.00 0.00 0.00 0.00 0.01 0.02 0.02 0.01 0.03 0.03 0.02 0.03 0.02 0.02 0.02 0.02 0.04 0.08 0.06 0.05 0.06 0.02 0.04 0.10 0.07 0.05 0.05 0.05 0.07 0.04 0.01 0.04 0.03 0.13 0.08 0.07 0.03 0.07 0.08 0.08 0.16 0.26 0.23 0.20 0.18 0.18 0.23 0.23 0.19 0.16 0.13 0.22 0.20 0.23 0.23 0.33 0.19
0.00 0.00 0.00 0.00 0.00 0.00 0.00 0.00 0.00 0.00 0.00 0.00 0.00 0.00 0.00 0.00 0.00 0.00 0.00 0.00 0.00 0.00 0.00 0.00 0.00 0.00 0.00 0.00 0.00 0.00 0.00 0.00 0.00 0.00 0.00 0.00 0.00 0.00 0.00 0.00 0.00 0.00 0.00 0.01 0.00 0.01 0.05 0.02 0.01 0.01 0.03 0.03 0.03 0.03 0.02 0.03 0.02 0.03 0.05 0.05 0.03 0.04 0.03 0.05 0.04 0.05 0.02 0.04 0.10 0.15 0.08 0.04 0.04 0.06 0.05 0.08 0.07 0.07 0.07 0.09 0.13 0.11 0.19 0.21 0.18 0.19 0.19 0.22 0.17 0.17 0.20 0.18 0.17 0.25 0.26 0.17 0.14
0.00 0.00 0.00 0.00 0.00 0.00 0.00 0.00 0.00 0.00 0.00 0.00 0.00 0.00 0.00 0.00 0.00 0.00 0.00 0.00 0.00 0.00 0.00 0.00 0.00 0.00 0.00 0.00 0.00 0.00 0.00 0.00 0.00 0.00 0.00 0.00 0.00 0.00 0.00 0.00 0.00 0.00 0.00 0.00 0.00 0.01 0.03 0.02 0.02 0.02 0.03 0.01 0.02 0.03 0.02 0.02 0.03 0.02 0.02 0.04 0.05 0.04 0.03 0.05 0.03 0.03 0.05 0.02 0.03 0.03 0.02 0.02 0.04 0.03 0.03 0.04 0.04 0.05 0.10 0.09 0.07 0.08 0.05 0.09 0.17 0.18 0.15 0.20 0.20 0.20 0.35 0.48 0.46 0.47 0.17 0.15 0.11
0.00 0.00 0.00 0.00 0.00 0.00 0.00 0.00 0.00 0.00 0.00 0.00 0.00 0.00 0.00 0.00 0.00 0.00 0.00 0.00 0.00 0.00 0.00 0.00 0.00 0.00 0.00 0.00 0.00 0.00 0.00 0.00 0.00 0.00 0.00 0.00 0.00 0.00 0.00 0.00 0.00 0.01 0.01 0.00 0.01 0.00 0.01 0.01 0.01 0.01 0.02 0.03 0.02 0.02 0.02 0.02 0.02 0.02 0.01 0.03 0.02 0.03 0.01 0.02 0.03 0.03 0.01 0.01 0.02 0.01 0.01 0.02 0.01 0.02 0.02 0.04 0.04 0.06 0.12 0.05 0.04 0.07 0.08 0.10 0.30 0.19 0.28 0.49 0.57 0.34 0.52 0.71 0.57 0.29 0.13 0.11 0.06
0.00 0.00 0.00 0.00 0.00 0.00 0.00 0.00 0.00 0.00 0.00 0.00 0.00 0.00 0.00 0.00 0.00 0.00 0.00 0.00 0.00 0.00 0.00 0.00 0.00 0.00 0.00 0.00 0.00 0.00 0.00 0.00 0.00 0.00 0.00 0.00 0.00 0.00 0.00 0.00 0.00 0.00 0.01 0.00 0.00 0.00 0.01 0.01 0.01 0.00 0.01 0.02 0.02 0.01 0.02 0.01 0.03 0.03 0.02 0.02 0.02 0.01 0.01 0.02 0.01 0.01 0.00 0.00 0.00 0.03 0.02 0.01 0.02 0.02 0.03 0.05 0.03 0.03 0.04 0.07 0.12 0.16 0.15 0.15 0.17 0.56 0.43 0.42 0.29 0.37 0.61 0.48 0.35 0.33 0.19 0.18 0.17
0.00 0.00 0.00 0.00 0.00 0.00 0.00 0.00 0.00 0.00 0.00 0.00 0.01 0.10 0.00 0.00 0.00 0.00 0.00 0.00 0.00 0.00 0.00 0.00 0.00 0.00 0.00 0.00 0.00 0.00 0.00 0.00 0.00 0.00 0.00 0.00 0.01 0.00 0.01 0.01 0.01 0.01 0.01 0.03 0.01 0.01 0.01 0.02 0.03 0.03 0.01 0.01 0.01 0.02 0.01 0.02 0.02 0.03 0.02 0.02 0.02 0.02 0.02 0.01 0.01 0.01 0.01 0.01 0.01 0.01 0.02 0.05 0.04 0.02 0.04 0.06 0.11 0.05 0.08 0.29 0.27 0.17 0.17 0.35 0.34 0.37 0.36 0.36 0.37 0.28 0.29 0.14 0.15 0.13 0.19 0.17 0.13
0.00 0.00 0.00 0.00 0.00 0.00 0.00 0.00 0.00 0.00 0.00 0.00 0.00 0.01 0.00 0.00 0.00 0.00 0.00 0.00 0.00 0.00 0.00 0.00 0.00 0.00 0.00 0.00 0.00 0.00 0.00 0.00 0.00 0.00 0.00 0.00 0.00 0.00 0.00 0.00 0.00 0.01 0.01 0.01 0.03 0.06 0.02 0.02 0.02 0.03 0.01 0.02 0.03 0.02 0.03 0.03 0.02 0.03 0.02 0.02 0.01 0.02 0.03 0.04 0.01 0.02 0.02 0.04 0.04 0.05 0.11 0.07 0.06 0.10 0.10 0.11 0.05 0.07 0.12 0.21 0.14 0.22 0.44 0.38 0.41 0.61 0.38 0.28 0.20 0.20 0.14 0.13 0.12 0.14 0.19 0.10 0.13
0.00 0.00 0.00 0.00 0.00 0.00 0.00 0.00 0.00 0.00 0.00 0.00 0.00 0.04 0.04 0.01 0.00 0.00 0.00 0.00 0.00 0.00 0.00 0.00 0.00 0.00 0.00 0.00 0.00 0.00 0.00 0.00 0.00 0.00 0.00 0.00 0.00 0.00 0.00 0.01 0.01 0.00 0.01 0.02 0.03 0.02 0.04 0.03 0.03 0.03 0.03 0.03 0.03 0.03 0.03 0.03 0.02 0.03 0.02 0.03 0.03 0.03 0.05 0.07 0.09 0.12 0.22 0.47 0.62 0.30 0.22 0.20 0.15 0.20 0.18 0.16 0.20 0.22 0.25 0.15 0.29 0.41 0.30 0.29 0.35 0.36 0.34 0.27 0.17 0.19 0.16 0.16 0.09 0.12 0.14 0.16 0.17
0.00 0.00 0.00 0.01 0.00 0.00 0.00 0.00 0.00 0.00 0.00 0.00 0.01 0.07 0.01 0.02 0.00 0.00 0.00 0.00 0.00 0.00 0.00 0.00 0.00 0.00 0.00 0.00 0.00 0.00 0.00 0.00 0.00 0.00 0.00 0.00 0.00 0.00 0.01 0.02 0.01 0.01 0.01 0.02 0.02 0.02 0.03 0.02 0.02 0.01 0.01 0.01 0.02 0.02 0.02 0.02 0.02 0.11 0.04 0.03 0.04 0.04 0.05 0.07 0.20 0.28 0.18 0.48 0.79 0.42 0.19 0.25 0.74 0.40 0.40 0.31 0.35 0.23 0.27 0.23 0.54 0.37 0.35 0.26 0.39 0.36 0.21 0.08 0.43 0.10 0.06 0.12 0.12 0.16 0.15 0.18 0.16
0.00 0.00 0.00 0.00 0.00 0.00 0.00 0.00 0.00 0.00 0.00 0.00 0.00 0.00 0.00 0.01 0.00 0.00 0.00 0.00 0.00 0.00 0.00 0.00 0.00 0.00 0.00 0.00 0.00 0.00 0.01 0.01 0.02 0.00 0.02 0.00 0.01 0.01 0.00 0.00 0.01 0.00 0.00 0.02 0.02 0.01 0.04 0.02 0.02 0.02 0.00 0.00 0.00 0.01 0.02 0.03 0.03 0.06 0.05 0.06 0.05 0.04 0.07 0.04 0.03 0.10 0.13 0.26 0.54 0.19 0.15 0.27 0.86 0.40 0.35 0.24 0.20 0.29 0.39 0.52 0.48 0.47 0.51 0.35 0.30 0.17 0.11 0.17 0.15 0.15 0.14 0.15 0.13 0.20 0.15 0.23 0.22
0.00 0.00 0.00 0.01 0.00 0.00 0.00 0.00 0.00 0.00 0.00 0.00 0.00 0.00 0.00 0.01 0.00 0.00 0.00 0.00 0.00 0.00 0.00 0.00 0.00 0.00 0.00 0.00 0.00 0.04 0.01 0.03 0.04 0.00 0.02 0.01 0.03 0.01 0.01 0.01 0.02 0.00 0.01 0.01 0.01 0.01 0.01 0.03 0.02 0.01 0.00 0.01 0.03 0.02 0.04 0.04 0.04 0.05 0.03 0.03 0.04 0.10 0.08 0.06 0.08 0.05 0.16 0.23 0.24 0.26 0.74 0.62 0.87 0.29 0.25 0.36 0.31 0.35 0.51 0.62 0.51 0.43 0.48 0.23 0.23 0.26 0.19 0.18 0.19 0.28 0.11 0.04 0.15 0.16 0.26 0.27 0.28
0.00 0.00 0.00 0.00 0.00 0.00 0.04 0.00 0.00 0.00 0.00 0.00 0.00 0.00 0.00 0.01 0.00 0.00 0.00 0.00 0.00 0.00 0.00 0.00 0.00 0.00 0.00 0.00 0.00 0.00 0.01 0.00 0.00 0.00 0.02 0.03 0.01 0.01 0.01 0.01 0.01 0.02 0.04 0.02 0.04 0.02 0.06 0.02 0.02 0.01 0.01 0.01 0.02 0.02 0.03 0.06 0.03 0.02 0.02 0.07 0.09 0.13 0.07 0.06 0.05 0.05 0.08 0.09 0.08 0.07 0.20 0.29 0.67 0.96 1.17 0.97 0.27 0.72 0.64 0.48 0.46 0.48 0.18 0.13 0.14 0.21 0.46 0.57 0.39 0.50 0.23 0.66 0.26 0.12 0.10 0.13 0.22
0.00 0.00 0.00 0.00 0.00 0.00 0.00 0.00 0.00 0.00 0.00 0.00 0.00 0.00 0.00 0.00 0.00 0.00 0.00 0.00 0.00 0.00 0.00 0.00 0.00 0.00 0.00 0.00 0.01 0.00 0.00 0.01 0.02 0.01 0.01 0.01 0.02 0.01 0.02 0.02 0.02 0.05 0.02 0.01 0.07 0.04 0.05 0.08 0.06 0.01 0.01 0.02 0.07 0.05 0.07 0.04 0.03 0.01 0.02 0.05 0.11 0.10 0.08 0.07 0.07 0.08 0.06 0.08 0.06 0.22 0.30 0.44 0.95 1.59 0.84 0.49 0.06 0.08 0.11 0.28 0.21 0.05 0.36 0.09 0.12 0.35 0.41 0.46 0.55 0.57 0.69 0.74 0.56 0.37 0.25 0.28 0.13
0.00 0.00 0.00 0.00 0.00 0.00 0.00 0.00 0.00 0.00 0.00 0.00 0.00 0.00 0.00 0.00 0.00 0.00 0.00 0.00 0.00 0.00 0.00 0.00 0.00 0.00 0.00 0.00 0.00 0.00 0.00 0.02 0.01 0.00 0.02 0.04 0.01 0.01 0.01 0.02 0.02 0.03 0.01 0.01 0.02 0.03 0.02 0.02 0.04 0.06 0.05 0.02 0.03 0.07 0.19 0.12 0.03 0.03 0.06 0.10 0.04 0.04 0.06 0.05 0.04 0.02 0.05 0.08 0.08 0.25 0.14 0.37 0.52 0.41 0.25 0.12 0.02 0.06 0.11 0.08 0.04 0.08 0.01 0.13 0.30 0.27 0.51 0.67 0.33 0.39 0.47 0.46 0.33 0.35 0.31 0.23 0.21
0.00 0.00 0.00 0.00 0.00 0.00 0.00 0.00 0.00 0.00 0.00 0.00 0.00 0.00 0.00 0.01 0.00 0.00 0.01 0.00 0.00 0.00 0.00 0.00 0.00 0.00 0.00 0.00 0.00 0.00 0.00 0.00 0.00 0.01 0.01 0.00 0.00 0.01 0.02 0.00 0.01 0.00 0.00 0.00 0.01 0.02 0.02 0.02 0.05 0.03 0.10 0.09 0.06 0.16 0.08 0.05 0.07 0.04 0.07 0.05 0.03 0.01 0.01 0.01 0.01 0.02 0.02 0.06 0.05 0.39 0.20 0.17 0.16 0.13 0.13 0.13 0.08 0.10 0.13 0.04 0.04 0.05 0.13 0.16 0.21 0.32 0.35 0.16 0.27 0.18 0.27 0.37 0.36 0.36 0.29 0.27 0.21
0.00 0.00 0.00 0.00 0.00 0.00 0.01 0.00 0.00 0.00 0.00 0.00 0.00 0.00 0.00 0.01 0.00 0.00 0.00 0.00 0.00 0.00 0.00 0.00 0.00 0.00 0.00 0.00 0.00 0.00 0.00 0.00 0.00 0.00 0.00 0.00 0.01 0.00 0.00 0.00 0.00 0.00 0.00 0.00 0.00 0.00 0.00 0.00 0.01 0.02 0.06 0.12 0.08 0.05 0.11 0.12 0.09 0.10 0.01 0.01 0.01 0.00 0.01 0.01 0.00 0.01 0.02 0.06 0.15 0.41 0.34 0.17 0.36 0.20 0.13 0.08 0.08 0.08 0.06 0.04 0.04 0.04 0.07 0.19 0.14 0.12 0.13 0.14 0.11 0.15 0.14 0.21 0.20 0.20 0.15 0.09 0.10
0.00 0.00 0.00 0.00 0.00 0.00 0.00 0.00 0.00 0.00 0.00 0.00 0.00 0.00 0.04 0.03 0.00 0.00 0.00 0.00 0.00 0.00 0.00 0.00 0.00 0.00 0.00 0.00 0.00 0.00 0.00 0.00 0.00 0.01 0.01 0.00 0.00 0.00 0.00 0.00 0.00 0.00 0.00 0.00 0.00 0.00 0.00 0.00 0.00 0.01 0.01 0.01 0.03 0.02 0.02 0.01 0.01 0.02 0.02 0.02 0.01 0.02 0.00 0.01 0.01 0.01 0.01 0.02 0.04 0.06 0.07 0.07 0.10 0.11 0.11 0.08 0.08 0.05 0.03 0.03 0.04 0.05 0.05 0.05 0.05 0.05 0.05 0.07 0.06 0.07 0.07 0.11 0.25 0.21 0.11 0.14 0.10
0.00 0.00 0.00 0.00 0.00 0.00 0.00 0.00 0.00 0.00 0.00 0.00 0.00 0.04 0.05 0.04 0.04 0.00 0.00 0.01 0.00 0.00 0.00 0.00 0.00 0.00 0.00 0.00 0.00 0.00 0.00 0.00 0.00 0.00 0.00 0.00 0.00 0.00 0.00 0.00 0.00 0.00 0.00 0.00 0.00 0.00 0.00 0.00 0.01 0.00 0.01 0.01 0.00 0.00 0.00 0.01 0.00 0.00 0.02 0.04 0.02 0.01 0.01 0.01 0.00 0.00 0.01 0.01 0.01 0.02 0.02 0.03 0.03 0.03 0.04 0.04 0.05 0.04 0.05 0.04 0.06 0.06 0.05 0.05 0.06 0.07 0.06 0.06 0.07 0.07 0.13 0.24 0.21 0.31 0.17 0.19 0.20
0.00 0.00 0.00 0.00 0.00 0.00 0.00 0.00 0.00 0.01 0.02 0.00 0.00 0.03 0.05 0.06 0.31 0.14 0.04 0.01 0.01 0.01 0.00 0.00 0.00 0.00 0.00 0.00 0.00 0.00 0.00 0.00 0.00 0.00 0.00 0.00 0.00 0.00 0.00 0.00 0.00 0.00 0.00 0.00 0.00 0.00 0.00 0.00 0.00 0.00 0.00 0.00 0.00 0.00 0.00 0.00 0.00 0.00 0.00 0.01 0.00 0.01 0.00 0.00 0.00 0.00 0.00 0.00 0.01 0.01 0.01 0.01 0.01 0.01 0.01 0.02 0.03 0.02 0.05 0.05 0.07 0.04 0.04 0.06 0.05 0.08 0.09 0.09 0.11 0.09 0.11 0.13 0.18 0.21 0.24 0.28 0.17
0.00 0.00 0.00 0.00 0.00 0.00 0.00 0.00 0.00 0.01 0.00 0.00 0.00 0.00 0.07 0.04 0.01 0.01 0.00 0.03 0.01 0.02 0.00 0.00 0.00 0.00 0.00 0.00 0.00 0.00 0.00 0.00 0.00 0.00 0.00 0.00 0.00 0.00 0.00 0.00 0.00 0.00 0.00 0.00 0.00 0.00 0.00 0.00 0.00 0.00 0.00 0.00 0.00 0.00 0.00 0.00 0.00 0.00 0.00 0.00 0.00 0.00 0.00 0.00 0.00 0.00 0.00 0.00 0.00 0.00 0.00 0.00 0.01 0.01 0.02 0.01 0.07 0.03 0.03 0.05 0.07 0.07 0.08 0.12 0.09 0.07 0.06 0.09 0.05 0.10 0.06 0.11 0.17 0.17 0.22 0.31 0.28
0.00 0.00 0.00 0.00 0.00 0.00 0.00 0.00 0.00 0.00 0.01 0.06 0.00 0.00 0.04 0.01 0.01 0.00 0.01 0.03 0.00 0.00 0.01 0.00 0.00 0.00 0.00 0.00 0.00 0.00 0.00 0.00 0.00 0.00 0.00 0.00 0.00 0.00 0.01 0.00 0.00 0.00 0.00 0.00 0.00 0.00 0.00 0.00 0.00 0.00 0.00 0.00 0.00 0.00 0.00 0.00 0.00 0.00 0.00 0.01 0.00 0.00 0.00 0.00 0.00 0.00 0.01 0.01 0.00 0.00 0.00 0.00 0.00 0.00 0.01 0.04 0.03 0.05 0.04 0.04 0.06 0.06 0.09 0.07 0.07 0.08 0.06 0.06 0.05 0.07 0.14 0.14 0.13 0.20 0.34 0.36 0.34
0.00 0.00 0.00 0.00 0.00 0.00 0.00 0.00 0.00 0.00 0.00 0.02 0.00 0.01 0.05 0.02 0.00 0.00 0.00 0.00 0.01 0.00 0.00 0.01 0.00 0.01 0.00 0.01 0.01 0.00 0.00 0.00 0.00 0.00 0.00 0.00 0.00 0.00 0.00 0.00 0.00 0.00 0.00 0.00 0.00 0.00 0.00 0.00 0.00 0.00 0.00 0.00 0.00 0.00 0.00 0.00 0.00 0.00 0.00 0.00 0.00 0.00 0.00 0.00 0.00 0.00 0.00 0.00 0.00 0.00 0.00 0.00 0.00 0.01 0.01 0.01 0.02 0.02 0.03 0.03 0.04 0.09 0.06 0.06 0.07 0.11 0.07 0.09 0.09 0.12 0.13 0.13 0.38 0.27 0.36 0.30 0.29
0.00 0.00 0.00 0.00 0.00 0.00 0.00 0.00 0.00 0.00 0.00 0.00 0.00 0.01 0.00 0.02 0.01 0.01 0.00 0.00 0.00 0.04 0.01 0.00 0.01 0.01 0.01 0.01 0.01 0.01 0.00 0.00 0.00 0.00 0.00 0.00 0.00 0.00 0.00 0.00 0.00 0.00 0.00 0.00 0.00 0.00 0.00 0.00 0.00 0.00 0.00 0.00 0.00 0.00 0.00 0.00 0.00 0.00 0.00 0.00 0.00 0.00 0.00 0.00 0.00 0.00 0.00 0.00 0.00 0.00 0.01 0.00 0.00 0.01 0.00 0.00 0.01 0.01 0.01 0.01 0.01 0.03 0.04 0.09 0.10 0.09 0.08 0.08 0.05 0.07 0.11 0.42 0.21 0.16 0.18 0.24 0.21
0.00 0.00 0.00 0.00 0.00 0.00 0.00 0.00 0.00 0.00 0.00 0.00 0.00 0.01 0.00 0.02 0.00 0.00 0.00 0.00 0.00 0.00 0.00 0.00 0.00 0.00 0.00 0.01 0.02 0.00 0.00 0.01 0.00 0.01 0.00 0.01 0.00 0.00 0.01 0.00 0.00 0.00 0.00 0.00 0.00 0.00 0.00 0.00 0.00 0.00 0.00 0.00 0.00 0.00 0.00 0.00 0.00 0.00 0.00 0.00 0.00 0.00 0.00 0.00 0.00 0.00 0.00 0.00 0.00 0.00 0.00 0.01 0.00 0.00 0.00 0.00 0.00 0.00 0.01 0.01 0.02 0.02 0.02 0.03 0.02 0.04 0.06 0.06 0.16 0.13 0.14 0.22 0.10 0.13 0.14 0.56 0.56
0.00 0.00 0.00 0.00 0.00 0.00 0.00 0.00 0.00 0.00 0.00 0.01 0.00 0.00 0.00 0.01 0.00 0.00 0.00 0.00 0.00 0.00 0.00 0.00 0.00 0.00 0.00 0.01 0.00 0.02 0.00 0.01 0.01 0.00 0.01 0.02 0.00 0.01 0.00 0.00 0.00 0.00 0.00 0.00 0.00 0.00 0.00 0.00 0.00 0.00 0.00 0.00 0.00 0.00 0.00 0.00 0.00 0.00 0.00 0.00 0.00 0.00 0.00 0.00 0.00 0.00 0.00 0.00 0.00 0.00 0.00 0.00 0.00 0.00 0.00 0.00 0.00 0.00 0.01 0.00 0.01 0.01 0.01 0.01 0.01 0.02 0.03 0.05 0.06 0.10 0.09 0.06 0.09 0.15 0.17 0.15 0.13
0.00 0.00 0.00 0.00 0.00 0.00 0.00 0.00 0.00 0.00 0.00 0.00 0.00 0.00 0.00 0.00 0.01 0.00 0.00 0.00 0.00 0.00 0.00 0.00 0.00 0.00 0.00 0.00 0.00 0.00 0.00 0.00 0.01 0.01 0.01 0.00 0.00 0.01 0.00 0.00 0.00 0.00 0.00 0.00 0.00 0.00 0.00 0.00 0.00 0.00 0.00 0.00 0.00 0.00 0.00 0.00 0.00 0.00 0.00 0.00 0.00 0.00 0.00 0.00 0.00 0.00 0.00 0.00 0.00 0.00 0.00 0.00 0.00 0.00 0.00 0.00 0.00 0.00 0.01 0.00 0.00 0.01 0.01 0.01 0.01 0.01 0.02 0.02 0.03 0.03 0.04 0.04 0.05 0.15 0.13 0.25 0.19
0.00 0.00 0.00 0.00 0.00 0.00 0.00 0.00 0.00 0.00 0.00 0.00 0.00 0.00 0.00 0.00 0.00 0.00 0.00 0.00 0.00 0.00 0.00 0.00 0.00 0.00 0.02 0.00 0.00 0.00 0.00 0.00 0.01 0.00 0.00 0.00 0.00 0.02 0.00 0.00 0.00 0.00 0.00 0.00 0.00 0.00 0.00 0.00 0.00 0.00 0.00 0.00 0.00 0.00 0.00 0.00 0.00 0.00 0.00 0.00 0.00 0.00 0.00 0.00 0.00 0.00 0.00 0.00 0.00 0.00 0.01 0.01 0.00 0.01 0.00 0.00 0.00 0.00 0.00 0.00 0.00 0.01 0.01 0.01 0.01 0.02 0.01 0.02 0.02 0.02 0.11 0.02 0.04 0.08 0.12 0.13 0.11
0.00 0.00 0.00 0.00 0.00 0.00 0.00 0.00 0.00 0.00 0.00 0.00 0.00 0.00 0.00 0.00 0.00 0.00 0.00 0.00 0.00 0.00 0.00 0.00 0.00 0.00 0.00 0.02 0.00 0.00 0.00 0.00 0.00 0.00 0.00 0.00 0.00 0.02 0.00 0.00 0.00 0.00 0.00 0.00 0.00 0.00 0.00 0.00 0.00 0.00 0.00 0.00 0.00 0.00 0.00 0.00 0.00 0.00 0.00 0.00 0.00 0.00 0.00 0.00 0.00 0.00 0.00 0.00 0.00 0.00 0.00 0.01 0.01 0.01 0.01 0.00 0.00 0.00 0.00 0.00 0.00 0.00 0.01 0.02 0.01 0.01 0.02 0.02 0.02 0.07 0.19 0.18 0.16 0.14 0.22 0.19 0.21
0.00 0.00 0.00 0.00 0.00 0.00 0.00 0.00 0.00 0.00 0.00 0.00 0.00 0.00 0.00 0.00 0.00 0.00 0.00 0.00 0.00 0.00 0.00 0.00 0.00 0.00 0.00 0.00 0.00 0.00 0.00 0.00 0.00 0.00 0.00 0.00 0.01 0.00 0.00 0.03 0.00 0.00 0.00 0.00 0.00 0.00 0.00 0.00 0.00 0.00 0.00 0.00 0.00 0.00 0.00 0.00 0.00 0.00 0.00 0.00 0.00 0.00 0.00 0.00 0.00 0.00 0.00 0.00 0.00 0.00 0.01 0.01 0.00 0.01 0.01 0.01 0.01 0.01 0.01 0.01 0.01 0.02 0.00 0.01 0.01 0.01 0.02 0.02 0.02 0.02 0.13 0.17 0.23 0.25 0.18 0.12 0.12
0.00 0.00 0.00 0.00 0.00 0.00 0.00 0.00 0.00 0.00 0.00 0.00 0.00 0.00 0.01 0.00 0.00 0.00 0.00 0.00 0.00 0.00 0.00 0.00 0.00 0.00 0.00 0.00 0.00 0.01 0.00 0.00 0.00 0.00 0.00 0.00 0.01 0.00 0.01 0.03 0.00 0.00 0.00 0.00 0.00 0.00 0.00 0.00 0.00 0.00 0.00 0.00 0.00 0.00 0.00 0.00 0.00 0.00 0.00 0.00 0.00 0.00 0.00 0.00 0.00 0.00 0.00 0.00 0.00 0.00 0.00 0.01 0.01 0.00 0.00 0.01 0.00 0.01 0.01 0.01 0.01 0.02 0.03 0.01 0.01 0.01 0.02 0.02 0.03 0.03 0.02 0.07 0.11 0.20 0.17 0.18 0.23
0.00 0.00 0.00 0.00 0.00 0.00 0.00 0.00 0.00 0.00 0.00 0.00 0.00 0.00 0.00 0.00 0.00 0.00 0.00 0.00 0.00 0.00 0.00 0.00 0.00 0.00 0.00 0.00 0.00 0.00 0.00 0.00 0.00 0.00 0.00 0.00 0.00 0.00 0.00 0.03 0.01 0.00 0.00 0.00 0.00 0.00 0.00 0.00 0.00 0.00 0.00 0.00 0.00 0.00 0.00 0.00 0.00 0.00 0.00 0.00 0.00 0.00 0.00 0.00 0.00 0.00 0.00 0.00 0.00 0.00 0.00 0.00 0.00 0.01 0.00 0.01 0.01 0.01 0.00 0.00 0.01 0.03 0.02 0.01 0.01 0.02 0.01 0.02 0.02 0.04 0.02 0.03 0.01 0.03 0.07 0.09 0.22
0.00 0.00 0.00 0.00 0.00 0.00 0.00 0.00 0.00 0.00 0.00 0.00 0.00 0.00 0.00 0.00 0.00 0.00 0.00 0.00 0.00 0.00 0.00 0.00 0.00 0.00 0.00 0.00 0.00 0.00 0.00 0.00 0.01 0.01 0.01 0.01 0.01 0.04 0.07 0.04 0.02 0.00 0.00 0.00 0.00 0.00 0.00 0.00 0.00 0.00 0.00 0.00 0.00 0.00 0.00 0.00 0.00 0.00 0.00 0.00 0.00 0.00 0.00 0.00 0.00 0.00 0.00 0.00 0.00 0.00 0.00 0.00 0.01 0.00 0.00 0.00 0.01 0.00 0.01 0.01 0.01 0.00 0.03 0.02 0.02 0.02 0.02 0.02 0.03 0.06 0.05 0.03 0.03 0.04 0.05 0.06 0.11
0.00 0.00 0.00 0.00 0.00 0.00 0.00 0.00 0.00 0.00 0.00 0.00 0.00 0.00 0.00 0.00 0.00 0.00 0.00 0.00 0.00 0.00 0.00 0.00 0.00 0.00 0.00 0.00 0.00 0.00 0.00 0.00 0.00 0.00 0.00 0.00 0.01 0.04 0.02 0.03 0.02 0.02 0.00 0.00 0.00 0.00 0.00 0.00 0.00 0.00 0.00 0.00 0.00 0.00 0.00 0.00 0.00 0.00 0.00 0.00 0.00 0.00 0.00 0.00 0.00 0.00 0.00 0.00 0.00 0.00 0.00 0.00 0.00 0.03 0.01 0.02 0.01 0.01 0.01 0.01 0.02 0.02 0.03 0.03 0.03 0.02 0.02 0.03 0.03 0.04 0.02 0.02 0.03 0.05 0.02 0.04 0.05
0.00 0.00 0.00 0.00 0.00 0.00 0.00 0.00 0.00 0.00 0.00 0.00 0.00 0.00 0.00 0.00 0.00 0.00 0.00 0.00 0.00 0.00 0.00 0.00 0.00 0.00 0.00 0.00 0.00 0.00 0.00 0.00 0.00 0.01 0.03 0.02 0.03 0.00 0.00 0.00 0.00 0.00 0.00 0.00 0.00 0.00 0.00 0.00 0.00 0.00 0.00 0.00 0.00 0.00 0.00 0.00 0.00 0.00 0.00 0.00 0.00 0.00 0.00 0.00 0.00 0.00 0.00 0.00 0.00 0.00 0.00 0.00 0.00 0.00 0.01 0.01 0.00 0.01 0.01 0.01 0.02 0.02 0.06 0.02 0.07 0.03 0.05 0.05 0.03 0.03 0.02 0.02 0.02 0.04 0.03 0.04 0.05